Location: Oshawa
(43.9000°N, 78.8670°W)
Time: 14:50:21
(UTC-04:00)

Cosmos 1821 Rocket - Visible Passes

Search period start: 29 July 2014 00:00
Search period end: 08 August 2014 00:00
Orbit: 945 x 1006 km, 82.9° (Epoch: 27 July)

Date Brightness Start Highest point End Pass type
(mag) Time Alt. Az. Time Alt. Az. Time Alt. Az.
29 Jul 5.8 00:54:55 10° NW 00:59:13 20° W 01:01:32 16° WSW visible
29 Jul 5.5 21:49:27 10° NNE 21:53:53 20° ENE 21:57:34 12° ESE visible
29 Jul 4.1 23:33:39 10° NNW 23:39:53 71° W 23:42:14 40° SSW visible
30 Jul 6.4 01:23:22 10° WNW 01:24:05 10° WNW 01:24:48 10° W visible
30 Jul 4.9 22:14:05 10° N 22:19:43 34° ENE 22:22:57 21° ESE visible
30 Jul 4.9 23:59:22 10° NNW 00:05:09 40° W 00:07:37 29° SW visible
31 Jul 4.2 22:39:09 10° N 22:45:21 58° ENE 22:48:21 31° SE visible
01 Aug 5.7 00:25:30 10° NW 00:30:14 23° W 00:33:01 17° WSW visible
01 Aug 5.7 21:20:41 10° NNE 21:24:39 17° ENE 21:28:38 10° ESE visible
01 Aug 4.0 23:04:31 10° N 23:10:49 82° W 23:13:45 35° S visible
02 Aug 6.3 00:52:43 10° NW 00:55:10 12° WNW 00:57:37 10° W visible
02 Aug 5.0 21:45:08 10° NNE 21:50:32 29° ENE 21:54:31 16° ESE visible
02 Aug 4.8 23:30:09 10° NNW 23:36:07 47° W 23:39:12 27° SSW visible
03 Aug 4.3 22:10:06 10° N 22:16:14 50° ENE 22:19:58 24° SE visible
03 Aug 5.6 23:56:09 10° NNW 00:01:16 27° W 00:04:39 17° SW visible
04 Aug 4.0 22:35:24 10° N 22:41:45 87° E 22:45:27 27° S visible
05 Aug 6.3 00:22:55 10° NW 00:26:14 15° W 00:29:33 10° WSW visible
05 Aug 5.2 21:16:12 10° NNE 21:21:21 26° ENE 21:26:16 11° ESE visible
05 Aug 4.6 23:00:58 10° NNW 23:07:05 55° W 23:10:56 23° SSW visible
06 Aug 4.5 21:41:05 10° N 21:47:06 44° ENE 21:51:47 17° SE visible
06 Aug 5.5 23:26:51 10° NNW 23:32:16 31° W 23:36:28 16° SW visible
07 Aug 4.0 22:06:18 10° N 22:12:39 76° E 22:17:20 20° SSE visible
07 Aug 6.2 23:53:19 10° NW 23:57:17 18° W 00:00:00 14° WSW visible
